Regional Weather Roundup
Issued by NWS State College, PA

Home | Current Version | Previous Version | Text Only | Print | Product List | Glossary Off
Versions: 1 2 3 4 5 6 7 8 9 10 11 12 13 14 15 16 17 18 19 20 21 22 23 24 25 26 27 28 29 30 31 32 33 34 35 36 37 38 39 40 41 42 43 44 45 46 47 48 49 50

000
ASUS41 KCTP 281103
RWRCTP

REGIONAL WEATHER ROUNDUP
NATIONAL WEATHER SERVICE STATE COLLEGE PA
700 AM EDT THU MAY 28 2015

Note: "fair" indicates few or no clouds below 12,000 feet with no
significant weather and/or obstructions to visibility.

* = STATION THAT DOES NOT REPORT PRECIPITATION /E.G. RAIN...SNOW...ETC/
    THUNDER OR FOG.

PAZ002>004-007>009-013>016-020>023-029>032-281200-
WESTERN PENNSYLVANIA

CITY           SKY/WX    TMP DP  RH WIND       PRES   REMARKS
ERIE           SUNNY     59  55  87 SW3       30.21R
MEADVILLE      SUNNY     61  57  87 N5        30.22R
FRANKLIN*      PTSUNNY   61  57  88 CALM      30.23R
NEW CASTLE     PTSUNNY   60  60 100 CALM      30.23R
BEAVER COUNTY  PTSUNNY   61  59  94 CALM      30.21
BUTLER*        PTSUNNY   57  57 100 CALM      30.23R
PITTSBURGH INT CLOUDY    63  59  87 CALM      30.21R
PITTSBURGH     MOSUNNY   64  57  78 NW3       30.20R
INDIANA*       CLOUDY    61  59  94 CALM      30.25R
LATROBE        PTSUNNY   64  64 100 CALM      30.22R
WASHINGTON CO* MOSUNNY   59  57  94 CALM      30.23R
$$

PAZ004>006-010>012-017>019-024>028-033>037-041-042-045-046-049>053-281200-
CENTRAL PENNSYLVANIA

CITY           SKY/WX    TMP DP  RH WIND       PRES   REMARKS
BRADFORD       CLOUDY    61  58  90 W7        30.21R
DUBOIS         PTSUNNY   62  59  90 W6        30.21R
CLEARFIELD     PTSUNNY   61  58  90 SW5       30.21R
JOHNSTOWN      PTSUNNY   63  57  81 W7        30.22R
ALTOONA        CLOUDY    67  59  75 W6        30.20R
STATE COLLEGE  MOSUNNY   63  59  88 W5        30.20R
WILLIAMSPORT   MOSUNNY   65  62  90 CALM      30.15R FOG
SELINSGROVE    MOSUNNY   69  67  93 CALM      30.16R FOG
FT INDIANTOWN  FOG       63  63 100 CALM      30.16R VSB 3/4
CAPITAL CITY   SUNNY     67  65  93 CALM      30.16R
HARRISBURG     PTSUNNY   68  65  90 SE3       30.15R FOG
YORK           SUNNY     67  66  97 SE3       30.16R FOG
$$

PAZ038>040-043-044-047-048-054-055-060>062-067>071-281200-
EASTERN PENNSYLVANIA

CITY           SKY/WX    TMP DP  RH WIND       PRES   REMARKS
SCRANTON       PTSUNNY   66  63  90 SE3       30.15S FOG
MOUNT POCONO   SUNNY     65  62  90 W5        30.19R
ALLENTOWN      CLOUDY    67  66  97 CALM      30.15R FOG
QUAKERTOWN*    CLOUDY    68  68 100 CALM      30.18R
READING        PTSUNNY   70  68  93 CALM      30.15R FOG
LANCASTER      CLOUDY    70  68  93 SE3       30.15S FOG
COATESVILLE    CLOUDY    70  70 100 W3        30.18R FOG
POTTSTOWN      CLOUDY    70  70 100 SW5       30.18R
BLUE BELL      CLOUDY    72  70  94 CALM      30.16R
DOYLESTOWN     CLOUDY    68  68 100 CALM      30.16R
WILLOW GROVE   NOT AVBL
NORTH PHILA    CLOUDY    72  65  78 CALM      30.17R
PHILADELPHIA   CLOUDY    71  67  87 S3        30.17R
$$



USA.gov is the U.S. government's official web portal to all federal, state and local government web resources and services.